Temperature
33 32 32 33 34 34 34 34 34 35 36 35 34 33 33 32 31 30 29 28 27 26 25 24 24 23 22 21 20 20 20 20 20 20 20 19 19 19 19 19 19 19 19 18
33 32 34 35 35 35 34 34 34 35 36 35 34 33 33 33 32 31 30 29 28 27 26 24 24 23 22 21 21 20 20 20 20 20 20 20 19 19 19 19 19 19 18 19
33 34 35 35 35 34 34 34 34 34 35 35 33 32 33 33 32 31 30 29 28 27 26 25 24 23 22 21 21 21 20 20 20 20 20 19 19 19 19 19 19 19 19 19
34 35 35 34 34 34 33 35 35 35 34 33 33 31 32 32 32 31 30 30 29 28 27 25 24 23 23 22 21 21 20 20 20 20 20 19 19 19 19 19 19 19 19 18
34 34 34 34 34 34 34 35 34 34 33 33 33 32 32 32 31 31 31 30 29 28 27 26 25 24 23 22 21 21 21 20 20 20 20 19 19 19 19 19 19 19 18 18
34 35 35 35 35 35 35 34 34 33 33 31 32 32 32 32 32 32 32 30 29 28 27 26 25 24 23 22 21 21 20 20 20 20 20 19 19 19 19 19 19 19 18 18
33 34 35 35 34 34 34 32 31 31 31 31 33 33 32 33 33 33 32 31 29 28 27 26 25 24 23 22 22 21 20 20 20 20 20 19 19 19 19 19 18 18 18 18
32 32 34 34 34 33 33 32 30 30 30 32 33 32 33 34 34 33 32 31 30 29 27 26 25 24 23 22 22 21 21 20 20 20 19 19 19 19 19 19 18 18 18 18
32 32 34 35 35 34 32 33 33 32 31 31 32 32 33 34 34 33 32 31 30 29 28 26 25 24 23 22 22 21 21 21 20 20 19 19 19 19 19 18 18 18 18 18
32 31 33 34 35 34 34 33 33 32 30 30 31 32 32 32 32 32 32 31 30 29 27 26 25 24 23 22 22 21 21 20 20 20 19 19 19 19 18 18 18 18 18 18
32 31 32 33 33 33 33 33 32 32 31 30 30 30 33 32 32 32 31 30 29 29 28 26 25 24 23 22 22 21 21 20 20 20 19 19 18 18 18 18 18 18 18 18
32 31 31 32 34 35 34 33 33 31 30 31 30 30 33 33 33 32 31 30 28 28 27 26 25 24 23 22 22 21 20 20 20 19 19 19 18 18 18 18 18 18 18 18
31 30 29 30 32 33 33 33 33 33 32 31 30 30 33 32 32 31 30 29 28 27 27 26 25 24 23 22 21 21 20 20 19 19 19 19 18 18 18 18 18 18 18 17
30 30 29 29 30 31 32 33 33 32 32 31 31 31 31 31 30 30 29 28 27 26 26 25 24 23 22 22 21 20 20 20 19 19 18 18 18 18 18 18 17 17 17 17
30 29 30 30 31 31 31 32 32 32 32 31 31 31 30 30 29 28 28 27 26 26 25 24 23 22 22 21 21 20 20 19 19 19 18 18 18 18 18 17 17 17 17 16
30 29 29 29 30 31 31 31 32 32 32 31 31 30 30 29 29 28 27 27 26 25 24 23 22 22 21 21 20 20 20 19 19 19 18 18 18 17 17 17 17 16 17 16
29 28 27 28 29 30 29 31 31 31 31 31 30 29 29 28 28 27 27 26 25 25 24 23 22 21 21 20 20 19 19 19 19 18 18 17 17 17 17 17 16 16 16 16
28 27 27 27 28 26 29 31 31 31 30 30 29 28 28 27 27 26 25 25 24 24 23 22 22 21 21 20 20 19 19 19 18 18 18 17 17 17 16 16 16 16 16 16
29 27 27 27 27 27 29 30 30 29 28 28 27 27 27 26 26 25 24 24 23 22 22 22 21 21 20 20 19 19 18 18 18 17 17 17 16 16 16 16 16 16 16 16
28 27 26 26 26 26 27 29 29 29 27 27 26 26 26 26 25 24 23 23 22 22 21 21 20 20 20 19 19 18 18 18 17 17 17 16 16 16 15 15 15 15 15 15
26 25 25 25 25 26 26 28 28 26 25 25 25 25 24 24 24 23 22 21 21 20 20 20 20 19 19 19 18 18 18 17 17 16 16 16 16 15 15 15 15 15 15 15
25 25 25 25 24 24 25 26 25 24 24 24 23 23 23 22 22 21 21 20 20 19 19 19 19 18 18 18 17 17 17 16 16 16 16 16 15 15 15 15 15 15 15 15
25 24 24 24 24 24 24 24 24 23 23 23 22 22 22 22 21 21 20 19 19 19 18 18 18 17 17 17 17 16 16 16 15 15 15 15 15 15 15 15 15 15 15 15
25 25 24 23 24 24 24 24 23 23 22 22 22 22 21 21 20 20 19 19 18 18 17 17 17 17 16 16 16 16 15 15 15 15 14 14 15 14 15 15 15 15 15 15
24 24 23 23 23 23 23 22 22 22 22 22 21 21 21 20 20 19 18 18 17 17 17 16 16 16 16 16 15 15 15 14 14 14 14 14 14 14 14 14 14 14 14 15
23 23 22 22 22 22 22 21 21 21 21 21 20 20 20 19 19 18 17 17 17 16 16 16 15 15 15 15 15 14 14 14 14 13 13 13 14 14 14 14 14 14 14 14
Wind_Speed
11 11 10 10 10 9 7 6 5 4 3 2 2 4 8 10 9 9 10 12 12 12 12 12 11 12 11 10 8 7 6 5 3 2 2 2 2 1 1 1 3 2 2 2
12 13 13 12 9 9 8 8 8 6 2 2 2 3 6 9 10 10 11 11 12 12 13 12 11 11 12 11 9 7 6 5 4 3 3 2 2 2 2 1 3 2 2 1
15 11 9 11 10 9 10 9 8 7 5 5 5 6 6 7 8 8 9 11 12 13 14 13 12 11 12 11 10 8 7 5 4 3 2 1 1 1 1 1 2 1 2 1
14 12 10 10 10 9 10 10 10 9 8 8 7 6 7 8 9 9 9 10 12 12 14 14 13 12 11 11 10 8 7 5 4 3 2 2 2 2 1 1 1 1 1 1
13 12 12 12 10 10 10 10 10 10 10 11 10 7 5 10 10 10 10 10 11 11 12 13 13 13 11 11 11 9 8 6 5 4 4 3 2 2 1 1 1 1 2 1
15 12 12 11 10 10 10 10 11 11 10 12 9 8 5 6 8 10 10 9 9 10 9 10 12 11 10 10 9 9 8 7 6 5 4 3 3 2 1 1 1 2 2 2
16 15 13 11 12 11 11 10 8 8 8 9 10 8 3 5 6 6 9 11 11 11 10 10 10 11 10 9 9 8 9 7 7 6 5 4 3 3 2 2 2 2 1 1
15 14 14 13 13 12 11 11 10 9 9 8 7 6 4 7 7 7 9 10 11 11 11 11 10 10 10 9 9 8 9 8 7 6 5 3 3 3 2 2 2 1 1 1
12 12 11 13 14 13 13 12 14 12 15 12 7 5 5 6 8 9 10 9 9 9 9 10 10 10 9 9 9 8 8 7 7 7 5 4 3 2 2 2 2 2 2 2
14 13 12 11 12 15 15 12 10 9 9 11 10 7 4 6 7 7 8 9 8 9 9 9 9 9 8 8 8 8 8 7 6 5 6 5 4 4 3 2 2 2 2 2
14 14 15 13 15 15 14 14 11 9 9 10 10 6 2 7 7 7 8 7 7 8 9 8 8 8 8 7 8 8 7 7 6 5 4 3 4 4 3 3 3 2 2 2
11 12 13 15 14 14 14 14 14 11 9 10 10 7 2 3 7 7 6 6 6 6 7 7 7 7 7 6 6 7 6 7 7 5 4 4 4 4 4 4 3 3 2 2
6 9 11 13 13 13 13 14 14 14 12 11 11 6 4 3 4 6 6 6 4 5 6 6 6 6 6 6 6 6 6 6 6 6 6 5 4 4 4 3 2 2 3 3
6 11 13 14 11 10 12 14 14 14 12 12 10 5 3 3 4 5 6 5 5 5 5 5 5 5 4 4 5 5 6 5 5 6 5 4 4 3 3 3 3 3 3 3
8 13 14 16 16 16 15 15 14 14 14 14 9 6 2 2 4 4 5 4 4 5 5 4 5 4 4 4 4 4 5 5 4 4 4 4 3 2 2 2 3 3 3 4
9 11 12 16 17 17 17 15 14 15 14 13 9 6 1 3 4 4 3 4 4 4 4 4 5 5 4 4 4 3 3 4 4 3 3 3 3 3 3 3 3 3 3 3
8 8 10 14 15 16 16 15 14 12 12 10 7 3 2 3 2 2 2 2 3 3 3 3 4 4 4 3 3 3 3 2 2 2 2 3 3 3 3 3 2 3 3 3
10 8 8 13 13 16 12 10 10 9 6 4 2 2 3 3 2 4 2 2 3 2 2 2 2 3 4 3 3 3 2 3 3 2 2 2 3 3 3 3 2 2 3 3
10 8 9 11 14 15 12 8 8 7 2 4 4 4 2 2 3 4 5 4 3 2 2 1 1 1 2 3 3 3 3 3 3 3 2 2 3 3 2 2 2 3 3 3
10 7 9 11 13 14 8 6 6 5 3 4 4 4 4 2 1 1 4 4 3 3 2 2 1 1 2 3 3 2 2 2 2 2 2 2 2 3 3 3 3 3 3 4
9 9 12 13 14 10 7 7 6 6 2 5 5 5 5 5 3 2 3 4 4 3 2 2 2 1 1 2 2 2 1 1 1 1 1 2 2 3 4 3 3 4 5 5
8 8 9 10 12 7 7 6 4 4 5 6 6 6 5 4 3 2 3 4 4 3 3 2 2 2 2 2 2 1 0 0 0 0 1 2 3 5 4 3 4 5 6 6
7 6 5 5 4 1 4 3 4 4 4 5 5 6 4 3 2 1 2 2 2 2 2 2 2 2 1 2 1 1 1 1 1 1 2 3 4 4 3 5 5 5 5 6
5 4 6 5 3 3 4 3 3 4 5 5 5 5 4 3 2 1 1 1 1 0 1 1 1 1 1 1 1 1 1 1 0 2 2 3 4 4 4 4 5 5 5 5
7 6 6 6 6 6 4 4 5 5 5 5 5 4 4 3 2 1 1 0 1 1 0 0 0 0 0 1 1 1 1 1 2 2 3 4 4 4 3 4 4 4 3 3
8 7 6 6 5 6 5 5 6 5 5 5 5 4 4 3 2 1 1 1 0 1 1 1 1 1 1 1 0 0 0 1 2 3 4 4 4 4 3 3 3 3 3 3
Wind_Direction
233 241 253 253 244 248 274 286 273 249 183 217 199 164 163 166 162 161 165 167 167 167 159 158 160 154 149 144 144 150 150 147 153 155 186 189 190 206 209 189 144 155 229 238
239 238 246 265 270 271 271 267 266 274 216 232 246 215 177 171 169 164 171 173 169 169 161 162 163 160 157 154 153 156 156 160 173 174 190 194 194 210 203 159 131 167 223 236
237 242 242 257 270 278 282 279 280 282 271 247 245 245 198 173 151 157 176 170 172 177 170 165 167 168 166 162 164 167 163 167 178 183 189 196 178 206 172 153 148 178 199 215
242 241 252 257 260 270 273 286 292 289 279 275 255 254 198 178 169 166 175 178 178 177 171 168 170 174 173 167 166 159 160 164 172 183 187 192 188 192 195 179 152 164 163 207
247 242 246 254 259 267 275 296 300 293 284 275 261 261 212 173 182 176 178 180 178 171 169 167 171 173 174 169 166 163 161 166 170 183 194 201 210 211 206 171 168 178 177 213
256 252 248 252 257 264 276 283 282 273 268 265 261 257 226 190 187 181 176 167 163 163 155 162 165 160 165 163 162 161 163 170 174 183 188 200 216 234 261 234 206 207 199 191
242 245 244 245 253 250 254 267 272 267 252 251 248 250 210 171 171 175 166 158 159 159 157 161 165 162 164 164 166 166 166 176 180 185 190 196 213 221 245 261 233 231 248 195
239 237 231 232 241 252 250 253 259 271 277 273 249 239 184 163 154 148 143 145 152 158 163 164 167 163 165 169 170 169 172 180 183 187 187 193 208 225 231 241 261 262 286 310
257 254 237 231 237 243 247 251 260 272 276 280 269 247 181 166 147 144 142 143 152 156 154 158 163 163 165 169 171 170 166 172 178 182 180 186 198 220 256 267 243 255 268 280
260 271 263 244 235 238 244 256 265 264 275 282 280 272 214 158 148 150 154 151 148 149 153 154 156 159 165 170 171 169 165 165 170 184 191 192 190 202 225 247 258 273 284 296
252 263 264 254 237 237 236 239 249 268 276 275 279 285 169 155 156 155 145 138 142 149 155 152 155 158 164 169 171 171 167 165 174 182 174 192 193 199 213 223 238 253 263 263
242 254 261 259 253 238 243 247 249 250 257 268 276 277 190 152 145 135 123 118 119 136 137 145 149 152 158 163 166 163 169 178 179 178 177 196 201 198 209 219 219 225 247 257
269 258 256 256 255 236 240 244 250 257 257 256 260 248 159 102 100 113 106 109 116 126 127 133 139 147 157 155 160 168 177 182 183 182 187 195 200 204 209 221 227 220 231 246
279 262 262 262 272 277 258 251 252 256 259 260 263 258 204 155 110 97 102 120 140 128 117 126 135 139 143 147 158 165 177 179 182 183 186 193 199 204 213 212 224 228 229 230
256 257 261 269 273 275 274 272 266 258 264 270 271 265 243 147 127 119 122 133 150 136 130 130 135 142 144 150 157 172 176 177 179 181 189 193 191 190 206 209 214 228 243 240
250 264 268 268 267 271 269 263 267 267 263 267 264 272 67 85 100 117 133 140 141 137 142 139 134 139 149 156 165 167 169 166 166 179 193 185 188 198 212 211 215 222 237 249
257 266 269 267 269 273 265 266 263 265 264 271 274 302 70 67 70 93 124 134 124 139 141 141 148 154 154 150 145 155 146 146 153 171 180 191 195 202 217 227 216 222 234 240
249 259 261 264 267 262 267 286 280 269 280 314 339 69 64 60 69 63 57 91 92 90 124 130 155 158 155 155 150 132 145 155 161 171 180 198 207 212 215 219 236 243 245 249
249 246 256 262 261 260 265 281 292 282 294 22 19 18 41 65 69 59 44 55 68 67 66 96 131 158 152 149 148 153 160 158 177 188 195 210 219 220 228 236 243 248 246 253
240 235 248 257 264 266 280 309 322 295 253 23 21 351 346 7 324 20 25 33 40 49 58 76 69 88 121 134 143 159 181 182 200 203 213 216 221 218 237 248 253 255 251 250
227 234 240 251 258 262 326 323 299 262 324 16 11 360 355 357 355 14 28 33 27 28 51 76 84 78 96 122 134 152 173 218 225 212 242 223 232 231 229 235 248 257 254 253
255 252 247 253 259 260 360 338 346 16 23 11 3 3 19 19 25 31 37 38 23 21 40 56 76 81 91 115 120 120 153 347 6 282 268 258 244 245 233 227 238 247 250 248
245 260 271 265 268 349 12 15 16 14 11 8 3 343 351 353 12 35 59 48 45 13 33 36 67 87 90 120 137 167 82 60 327 285 277 279 276 261 235 232 239 246 249 251
259 261 260 268 266 303 347 9 3 3 357 341 335 321 333 345 341 344 60 50 85 25 4 353 42 68 86 113 128 152 145 133 259 284 290 278 271 267 251 247 243 246 255 257
294 292 281 275 285 293 317 341 347 349 336 332 331 330 342 346 339 24 17 322 193 169 181 318 128 159 177 143 140 156 135 177 252 269 273 271 266 269 257 254 261 258 254 256
284 285 280 284 303 299 307 329 329 326 320 327 334 339 344 346 351 13 360 335 178 178 186 186 221 232 227 180 176 95 79 266 272 272 272 273 271 263 251 252 266 283 249 236
Height
1480 1482 1482 1475 1471 1471 1471 1474 1475 1467 1460 1464 1469 1473 1475 1478 1481 1486 1490 1494 1498 1502 1507 1510 1513 1516 1517 1519 1521 1522 1523 1525 1526 1527 1528 1529 1530 1531 1532 1532 1532 1532 1532 1532
1479 1480 1472 1467 1465 1466 1468 1474 1473 1465 1459 1465 1470 1471 1470 1474 1478 1483 1488 1492 1496 1500 1505 1508 1511 1514 1516 1517 1519 1521 1522 1524 1525 1526 1527 1528 1529 1530 1531 1532 1531 1531 1531 1531
1478 1471 1466 1467 1467 1469 1470 1471 1469 1468 1462 1462 1470 1477 1472 1471 1475 1482 1485 1489 1493 1498 1501 1505 1508 1511 1514 1516 1517 1519 1521 1522 1524 1525 1527 1528 1529 1529 1530 1530 1530 1530 1530 1530
1469 1465 1466 1468 1469 1470 1476 1463 1463 1465 1471 1475 1472 1489 1475 1471 1475 1479 1483 1487 1490 1494 1498 1502 1505 1509 1512 1514 1516 1518 1519 1521 1522 1524 1525 1526 1527 1528 1529 1529 1529 1529 1529 1529
1469 1464 1466 1470 1467 1466 1468 1462 1464 1466 1472 1477 1471 1481 1476 1468 1476 1476 1478 1482 1486 1491 1495 1499 1502 1506 1509 1512 1514 1515 1517 1519 1521 1522 1524 1525 1526 1527 1528 1528 1528 1528 1528 1528
1464 1461 1462 1463 1462 1463 1463 1465 1467 1467 1474 1490 1476 1480 1481 1469 1470 1471 1474 1479 1484 1489 1493 1497 1501 1504 1508 1510 1513 1514 1515 1517 1519 1520 1522 1523 1524 1525 1526 1527 1527 1527 1527 1527
1470 1463 1459 1461 1465 1463 1465 1478 1491 1496 1495 1492 1469 1473 1473 1461 1461 1466 1470 1476 1482 1487 1491 1495 1499 1502 1506 1508 1510 1512 1514 1515 1517 1518 1519 1521 1522 1524 1524 1525 1526 1526 1526 1526
1475 1473 1459 1458 1464 1468 1467 1475 1497 1507 1502 1485 1469 1474 1464 1455 1459 1463 1468 1474 1480 1485 1489 1493 1497 1500 1503 1506 1508 1510 1512 1513 1515 1516 1517 1519 1520 1522 1522 1523 1524 1524 1524 1525
1470 1468 1453 1453 1455 1460 1469 1470 1466 1478 1482 1486 1478 1467 1459 1453 1458 1463 1468 1474 1479 1483 1487 1491 1495 1499 1501 1504 1506 1508 1509 1511 1513 1514 1515 1517 1518 1519 1520 1521 1522 1522 1522 1523
1462 1470 1457 1451 1453 1455 1458 1461 1467 1478 1494 1500 1485 1476 1471 1462 1462 1463 1467 1472 1477 1482 1486 1490 1494 1497 1500 1502 1504 1506 1508 1509 1511 1512 1514 1515 1516 1517 1518 1519 1519 1520 1520 1520
1459 1469 1464 1456 1459 1460 1459 1463 1466 1472 1476 1492 1497 1484 1457 1457 1459 1462 1466 1472 1477 1481 1485 1489 1493 1496 1498 1501 1503 1504 1506 1508 1509 1511 1512 1514 1514 1515 1516 1516 1517 1517 1518 1518
1457 1464 1469 1459 1447 1445 1450 1456 1460 1477 1481 1477 1486 1482 1452 1454 1456 1462 1466 1471 1476 1480 1484 1488 1492 1494 1497 1499 1501 1502 1504 1506 1508 1509 1510 1511 1512 1513 1514 1514 1514 1515 1515 1515
1460 1466 1477 1473 1461 1450 1451 1451 1452 1457 1464 1473 1483 1480 1454 1457 1459 1463 1468 1473 1477 1480 1484 1488 1491 1494 1496 1498 1500 1501 1503 1504 1506 1507 1508 1509 1510 1511 1511 1512 1512 1512 1512 1512
1462 1466 1473 1480 1471 1458 1457 1453 1451 1456 1466 1469 1469 1469 1461 1460 1464 1467 1471 1475 1478 1481 1484 1487 1490 1493 1495 1497 1499 1500 1501 1503 1504 1505 1506 1507 1508 1508 1509 1509 1510 1510 1510 1509
1462 1467 1465 1461 1457 1454 1455 1454 1451 1454 1457 1464 1463 1463 1461 1460 1464 1468 1471 1474 1477 1480 1484 1487 1489 1492 1494 1496 1497 1499 1500 1501 1502 1503 1504 1505 1505 1506 1506 1506 1507 1507 1507 1507
1462 1466 1466 1466 1457 1455 1456 1451 1451 1451 1451 1454 1457 1460 1459 1461 1464 1468 1471 1473 1476 1479 1483 1486 1488 1490 1492 1494 1495 1497 1498 1499 1500 1501 1502 1503 1503 1503 1504 1504 1504 1504 1504 1504
1463 1468 1473 1473 1461 1459 1463 1452 1450 1451 1448 1452 1460 1461 1459 1463 1466 1469 1472 1474 1476 1479 1482 1484 1487 1488 1490 1492 1493 1495 1496 1497 1498 1499 1499 1500 1501 1501 1501 1501 1502 1501 1501 1501
1465 1468 1471 1471 1470 1483 1460 1446 1446 1448 1450 1451 1454 1459 1462 1466 1468 1470 1473 1473 1476 1479 1482 1484 1486 1487 1488 1490 1492 1493 1494 1495 1496 1497 1497 1498 1498 1498 1498 1499 1499 1498 1498 1499
1458 1465 1470 1472 1474 1468 1455 1448 1448 1452 1457 1457 1459 1462 1465 1466 1468 1471 1474 1475 1476 1479 1482 1483 1485 1486 1487 1488 1490 1491 1493 1493 1494 1494 1495 1495 1496 1496 1496 1495 1496 1496 1496 1496
1456 1461 1470 1471 1478 1479 1464 1452 1451 1454 1463 1462 1462 1466 1466 1466 1470 1474 1475 1476 1477 1478 1480 1481 1483 1484 1485 1487 1488 1489 1490 1491 1491 1492 1492 1492 1493 1493 1493 1492 1493 1493 1493 1493
1463 1466 1470 1472 1475 1468 1461 1455 1454 1468 1472 1466 1467 1468 1468 1470 1472 1474 1475 1476 1477 1478 1478 1479 1481 1482 1483 1485 1485 1486 1488 1489 1489 1489 1489 1489 1489 1490 1490 1490 1490 1490 1490 1490
1465 1467 1469 1470 1476 1475 1464 1461 1466 1471 1469 1469 1470 1471 1470 1472 1472 1473 1474 1474 1476 1476 1478 1478 1479 1480 1482 1483 1483 1484 1485 1486 1487 1486 1486 1486 1486 1486 1486 1486 1486 1487 1486 1486
1462 1464 1466 1469 1472 1469 1467 1468 1469 1470 1470 1470 1471 1472 1472 1472 1472 1473 1473 1474 1475 1477 1477 1478 1479 1479 1480 1481 1482 1482 1482 1483 1484 1483 1483 1483 1483 1482 1483 1483 1483 1483 1483 1483
1460 1461 1462 1465 1465 1466 1467 1468 1470 1470 1471 1471 1471 1471 1471 1471 1472 1472 1472 1473 1474 1475 1476 1477 1477 1478 1478 1479 1479 1480 1480 1481 1481 1480 1480 1480 1479 1479 1479 1480 1480 1480 1479 1479
1462 1462 1462 1465 1466 1467 1468 1469 1470 1470 1470 1470 1470 1471 1471 1471 1471 1472 1472 1472 1473 1473 1474 1475 1475 1475 1476 1476 1477 1478 1478 1479 1478 1478 1477 1476 1476 1476 1476 1476 1476 1476 1476 1475
1464 1464 1466 1467 1468 1469 1469 1470 1470 1470 1470 1470 1470 1470 1470 1471 1471 1471 1471 1471 1471 1472 1472 1472 1473 1473 1474 1474 1474 1475 1476 1476 1476 1475 1475 1474 1474 1473 1473 1472 1472 1472 1472 1472